[[{"header":{"parameterUnit":"m.s-1","parameterCategory":1,"la1":30.2991,"la2":30.254,"lo1":-89.0895,"lo2":-89.0444,"dy":0.0017,"dx":0.0017,"nx":28,"ny":28,"refTime":"2025-09-05T09:00:00:Z","depth":0,"parameterNumber":2,"parameterNumberName":"U-component_of_WINDS"},"data":[0,0,0,0,0,0,0,0,0,0,0,0,0,0,0,0,0,0,0,0,0,0,0,0,0,0,0,0,0,0,0,0,0,0,0,0,0,0,0,0,0,0,0,0,0,0,0,0,0,0,0,0,0,0,0,0,0,0,-0.5531,-0.5529,0,-0.5415,-0.5413,-0.5412,-0.5347,-0.5347,-0.5347,-0.5346,-0.5225,-0.5222,-0.5219,0,0,0,0,0,0,0,0,0,0,0,0,0,-0.5694,-0.5692,-0.5531,-0.5529,-0.5528,-0.5415,-0.5413,-0.5412,-0.5347,-0.5347,-0.5347,-0.5346,-0.5226,-0.5223,-0.5219,0,0,0,0,0,0,0,0,0,0,0,0,0,-0.5605,-0.5691,-0.5531,-0.5482,-0.5476,-0.5415,-0.5413,-0.5411,-0.5347,-0.5347,-0.5347,-0.5346,-0.5228,-0.5223,-0.5219,-0.5196,0,0,-0.5205,-0.5203,0,0,0,0,0,0,0,0,-0.561,-0.5599,-0.5491,-0.5485,-0.5479,-0.5395,-0.5426,-0.5339,-0.5347,-0.5396,-0.5346,-0.5346,-0.5282,-0.5273,-0.5252,-0.5191,-0.5186,-0.5204,-0.5202,-0.52,-0.5198,0,0,0,0,0,0,0,-0.5617,-0.5604,-0.5485,-0.5489,-0.5482,-0.5465,-0.5452,-0.541,-0.5342,-0.5392,-0.5387,-0.5374,-0.5279,-0.5256,-0.5248,-0.5184,-0.5204,-0.52,-0.5198,-0.5196,-0.51,-0.51,0,0,0,0,0,0,-0.5631,-0.561,-0.5488,-0.5481,-0.5545,-0.5463,-0.5448,-0.5422,-0.5342,-0.533,-0.5375,-0.5372,-0.5264,-0.5254,-0.5244,-0.5213,-0.52,-0.5195,-0.5193,-0.51,-0.51,-0.51,0,0,0,0,0,0,-0.5635,-0.5621,-0.5493,-0.5544,-0.5526,-0.546,-0.5432,-0.542,-0.5398,-0.5329,-0.5317,-0.5364,-0.5264,-0.525,-0.5209,-0.5208,-0.5193,-0.5189,-0.5099,-0.51,-0.51,-0.5152,0,0,0,0,0,0,-0.564,-0.5623,-0.5614,-0.5544,-0.5524,-0.5461,-0.5432,-0.5418,-0.539,-0.5385,-0.5316,-0.5304,-0.5262,-0.5216,-0.5205,-0.5201,-0.5186,-0.5099,-0.5099,-0.51,-0.515,-0.5154,-0.5157,0,0,0,0,0,-0.5646,-0.5632,-0.5614,-0.5599,-0.5512,-0.5461,-0.5449,-0.5402,-0.539,-0.5381,-0.5337,-0.5307,-0.521,-0.5213,-0.5199,-0.5194,-0.5099,-0.5099,-0.51,-0.5148,-0.5153,-0.5157,0,0,0,0,0,0,-0.5702,-0.5622,-0.5601,-0.5564,-0.552,-0.545,-0.5436,-0.5408,-0.5365,-0.5362,-0.5304,-0.5289,-0.5254,-0.522,-0.5224,-0.5169,-0.5151,-0.5149,-0.5193,-0.5197,-0.52,-0.5209,-0.5182,0,0,0,0,0,-0.571,-0.5676,-0.5608,-0.5583,-0.5562,-0.5503,-0.5479,-0.5447,-0.5398,-0.5379,-0.5332,-0.5285,-0.5244,-0.5219,-0.5177,-0.5145,-0.5129,-0.5135,-0.5139,-0.5142,-0.514,-0.5121,-0.5123,-0.5101,-0.5101,-0.5101,0,0,-0.5727,-0.5679,-0.5661,-0.5593,-0.5555,-0.552,-0.5488,-0.5452,-0.5426,-0.5373,-0.5331,-0.5296,-0.524,-0.5203,-0.5185,-0.5174,-0.5143,-0.5142,-0.5146,-0.5142,-0.5122,-0.5124,-0.5126,-0.5102,-0.5102,-0.5101,0,0,-0.5739,-0.57,-0.5675,-0.5638,-0.5581,-0.5542,-0.5536,-0.5471,-0.5445,-0.5403,-0.5362,-0.533,-0.5261,-0.5223,-0.5195,-0.5195,-0.5166,-0.5183,-0.5202,-0.5184,-0.5186,-0.5187,-0.5188,-0.5189,-0.5182,-0.5182,-0.5182,0,-0.5767,-0.5714,-0.5665,-0.5633,-0.5604,-0.5555,-0.5529,-0.5495,-0.5428,-0.5409,-0.5398,-0.5311,-0.527,-0.5224,-0.5224,-0.5203,-0.5194,-0.5191,-0.519,-0.5191,-0.5191,-0.5191,-0.5191,-0.5185,-0.5185,-0.5184,-0.5184,0,-0.5751,-0.5715,-0.5701,-0.5639,-0.5609,-0.558,-0.5526,-0.5501,-0.5471,-0.5434,-0.5392,-0.5341,-0.5289,-0.5276,-0.5246,-0.5226,-0.5222,-0.5201,-0.5182,-0.5197,-0.5196,-0.5195,-0.5189,-0.5188,-0.5187,-0.5186,0,0,-0.5794,-0.5706,-0.5702,-0.5673,-0.5608,-0.5579,-0.5548,-0.5498,-0.5478,-0.5433,-0.5406,-0.5349,-0.5331,-0.5299,-0.5264,-0.5249,-0.5253,-0.523,-0.5228,-0.5236,-0.5229,-0.5245,-0.5245,-0.5233,-0.5233,-0.5233,-0.5233,0,-0.5798,-0.5741,-0.5696,-0.5655,-0.5622,-0.5576,-0.5549,-0.5506,-0.547,-0.5437,-0.5397,-0.5358,-0.5336,-0.5316,-0.5299,-0.5256,-0.525,-0.5255,-0.5207,-0.5206,-0.5223,-0.5244,-0.5261,-0.5264,-0.5233,-0.5232,-0.5232,0,-0.5794,-0.5752,-0.5709,-0.5648,-0.5632,-0.5609,-0.556,-0.5528,-0.5478,-0.5454,-0.5419,-0.5384,-0.5349,-0.5334,-0.5285,-0.529,-0.5267,-0.5243,-0.5242,-0.5236,-0.522,-0.5239,-0.5263,-0.5264,-0.5231,-0.5231,-0.5231,0,-0.5831,-0.5764,-0.5729,-0.5706,-0.5634,-0.5619,-0.5588,-0.5538,-0.5511,-0.5468,-0.545,-0.5404,-0.5379,-0.5344,-0.5297,-0.529,-0.5253,-0.5234,-0.5232,-0.5233,-0.5226,-0.5227,-0.5248,-0.5211,-0.5211,-0.5211,-0.5211,0,-0.5839,-0.5814,-0.5745,-0.5724,-0.5695,-0.5644,-0.5617,-0.5582,-0.5538,-0.5509,-0.5466,-0.544,-0.538,-0.5346,-0.5309,-0.5275,-0.5263,-0.5243,-0.5233,-0.5246,-0.5249,-0.5231,-0.523,-0.5211,-0.5211,-0.5211,-0.5211,0,-0.5875,-0.5828,-0.5787,-0.5723,-0.5706,-0.5688,-0.5632,-0.561,-0.5573,-0.5537,-0.5525,-0.5467,-0.5425,-0.5375,-0.5317,-0.5292,-0.5262,-0.5247,-0.5279,-0.5273,-0.5274,-0.5275,-0.5284,-0.5283,-0.5248,-0.5248,-0.5249,0,-0.5883,-0.5864,-0.5798,-0.5776,-0.5747,-0.5712,-0.5685,-0.5634,-0.5607,-0.555,-0.5535,-0.549,-0.5452,-0.5388,-0.534,-0.5295,-0.528,-0.5286,-0.5273,-0.5287,-0.528,-0.5282,-0.528,-0.5289,-0.529,-0.5291,-0.5291,0,-0.5904,-0.5882,-0.5845,-0.58,-0.577,-0.5732,-0.5692,-0.5676,-0.5617,-0.559,-0.5548,-0.5518,-0.546,-0.5416,-0.5366,-0.5333,-0.5303,-0.5296,-0.5293,-0.5306,-0.5326,-0.5316,-0.5289,-0.5296,-0.5295,-0.5295,-0.5295,-0.5294,-0.5926,-0.5907,-0.5858,-0.5819,-0.5784,-0.5748,-0.5724,-0.5685,-0.5649,-0.5598,-0.557,-0.5529,-0.548,-0.541,-0.5379,-0.5345,-0.5334,-0.533,-0.5329,-0.5329,-0.5334,-0.5332,-0.5336,-0.5336,-0.5336,-0.5335,-0.5335,0,-0.5945,-0.5911,-0.5876,-0.5822,-0.5792,-0.5766,-0.5721,-0.5697,-0.5662,-0.5619,-0.5583,-0.5535,-0.5493,-0.5442,-0.5397,-0.538,-0.5365,-0.537,-0.537,-0.5364,-0.5346,-0.5353,-0.5383,-0.5383,-0.5383,-0.5383,-0.5383,-0.5383,-0.5951,-0.5917,-0.589,-0.5838,-0.5805,-0.5765,-0.5741,-0.5708,-0.5674,-0.5623,-0.5588,-0.5556,-0.551,-0.5461,-0.5422,-0.5408,-0.5393,-0.5403,-0.5385,-0.5369,-0.5365,-0.5361,-0.5367,-0.54,-0.54,-0.5406,-0.5406,-0.5406]},{"header":{"parameterUnit":"m.s-1","parameterCategory":1,"la1":30.2991,"la2":30.254,"lo1":-89.0895,"lo2":-89.0444,"dy":0.0017,"dx":0.0017,"nx":28,"ny":28,"refTime":"2025-09-05T09:00:00:Z","depth":0,"parameterNumber":3,"parameterNumberName":"V-component_of_WINDS"},"data":[0,0,0,0,0,0,0,0,0,0,0,0,0,0,0,0,0,0,0,0,0,0,0,0,0,0,0,0,0,0,0,0,0,0,0,0,0,0,0,0,0,0,0,0,0,0,0,0,0,0,0,0,0,0,0,0,0,0,1.4271,1.427,0,1.4242,1.4241,1.4241,1.4292,1.4294,1.4295,1.4297,1.4263,1.4261,1.4258,0,0,0,0,0,0,0,0,0,0,0,0,0,1.4364,1.4362,1.4271,1.427,1.427,1.4242,1.4241,1.4241,1.4292,1.4294,1.4296,1.4298,1.4264,1.4261,1.4258,0,0,0,0,0,0,0,0,0,0,0,0,0,1.4328,1.4362,1.4271,1.4292,1.4293,1.4242,1.4241,1.4241,1.4291,1.4294,1.4296,1.4299,1.4265,1.4261,1.4258,1.4183,0,0,1.4246,1.4245,0,0,0,0,0,0,0,0,1.433,1.4325,1.4289,1.429,1.4292,1.4273,1.4262,1.4221,1.429,1.4292,1.4297,1.43,1.4264,1.4261,1.4249,1.4181,1.418,1.4246,1.4244,1.4242,1.4241,0,0,0,0,0,0,0,1.4333,1.4326,1.4259,1.4288,1.429,1.4301,1.4299,1.4255,1.4264,1.4292,1.4296,1.4292,1.4265,1.4253,1.4249,1.4179,1.4246,1.4243,1.424,1.4239,1.4046,1.4043,0,0,0,0,0,0,1.4333,1.4328,1.426,1.4258,1.4318,1.4297,1.4295,1.4277,1.4264,1.4265,1.429,1.4294,1.4258,1.4253,1.4248,1.4158,1.4242,1.4239,1.4236,1.4049,1.4045,1.4042,0,0,0,0,0,0,1.4335,1.4327,1.4261,1.4294,1.4287,1.4293,1.4272,1.4275,1.4262,1.4263,1.4264,1.4275,1.426,1.4253,1.4198,1.4157,1.4237,1.4233,1.4052,1.4048,1.4044,1.3978,0,0,0,0,0,0,1.4338,1.4327,1.43,1.4293,1.4285,1.4213,1.427,1.4272,1.4256,1.4262,1.425,1.425,1.4261,1.4204,1.4195,1.4154,1.4231,1.4056,1.405,1.4045,1.3984,1.3972,1.3962,0,0,0,0,0,1.4341,1.4282,1.4298,1.429,1.4251,1.4211,1.4206,1.4221,1.4253,1.4224,1.4224,1.4251,1.4164,1.4198,1.4188,1.4145,1.4058,1.4052,1.4046,1.3988,1.3974,1.3962,0,0,0,0,0,0,1.4283,1.4282,1.43,1.4237,1.4224,1.422,1.4185,1.4206,1.4182,1.4188,1.4207,1.4204,1.4144,1.414,1.4178,1.4071,1.4116,1.4107,1.4076,1.4062,1.4052,1.4053,1.4227,0,0,0,0,0,1.4263,1.4232,1.4232,1.4177,1.4169,1.4178,1.4161,1.4174,1.416,1.4155,1.4151,1.4135,1.4104,1.4083,1.4055,1.3984,1.398,1.3949,1.3938,1.3929,1.3921,1.388,1.3866,1.4021,1.4021,1.4021,0,0,1.4221,1.4217,1.4196,1.4165,1.4156,1.4122,1.4173,1.4135,1.4108,1.4148,1.4096,1.4093,1.4076,1.4012,1.3984,1.4006,1.3877,1.3921,1.3914,1.391,1.3872,1.3857,1.3844,1.4017,1.4017,1.4018,0,0,1.4126,1.4121,1.4074,1.4064,1.405,1.4056,1.4045,1.4037,1.4036,1.3985,1.4013,1.3982,1.3929,1.3916,1.3902,1.3801,1.3823,1.3792,1.3733,1.3694,1.3681,1.367,1.3632,1.3619,1.3784,1.3783,1.3783,0,1.4076,1.4026,1.4046,1.4006,1.399,1.4026,1.3977,1.3966,1.3943,1.3931,1.3957,1.389,1.3882,1.3814,1.3789,1.3778,1.3763,1.3792,1.3682,1.3671,1.3661,1.3625,1.3611,1.378,1.378,1.378,1.3781,0,1.3963,1.3928,1.3892,1.3869,1.385,1.3805,1.3817,1.3794,1.3809,1.3812,1.3757,1.3749,1.3718,1.3704,1.3717,1.3637,1.3651,1.3679,1.3724,1.3642,1.3608,1.3595,1.3774,1.3775,1.3776,1.3777,0,0,1.383,1.382,1.3806,1.3795,1.3783,1.3755,1.3711,1.3683,1.3662,1.3645,1.3607,1.3561,1.3587,1.3571,1.3583,1.3549,1.3467,1.3581,1.3581,1.3558,1.3375,1.3352,1.3336,1.3482,1.348,1.3478,1.3375,0,1.3735,1.3661,1.3677,1.3603,1.3569,1.3603,1.3564,1.3551,1.3552,1.3522,1.3524,1.349,1.3527,1.3518,1.3485,1.3484,1.343,1.3492,1.3445,1.3443,1.3446,1.3319,1.3295,1.3199,1.3363,1.336,1.3359,0,1.3613,1.3592,1.3515,1.3507,1.3493,1.3458,1.3432,1.3405,1.339,1.3393,1.3375,1.3394,1.3348,1.3395,1.3331,1.3373,1.3354,1.3351,1.3347,1.3342,1.3394,1.3307,1.3169,1.3153,1.3339,1.334,1.3342,0,1.3521,1.3474,1.3421,1.3411,1.3401,1.3375,1.3369,1.3357,1.3338,1.3315,1.3303,1.3274,1.3258,1.3235,1.3245,1.3279,1.3178,1.3227,1.3177,1.3176,1.3152,1.3153,1.3006,1.3144,1.3144,1.3145,1.3145,0,1.3412,1.3362,1.3379,1.3346,1.3292,1.331,1.3255,1.3253,1.3241,1.3207,1.3235,1.3201,1.3218,1.3185,1.3193,1.3137,1.313,1.3129,1.3131,1.3125,1.3125,1.3112,1.3118,1.3141,1.3142,1.3142,1.3143,0,1.3298,1.3308,1.3252,1.3247,1.3244,1.3204,1.3198,1.3167,1.317,1.3126,1.3117,1.3122,1.3085,1.3093,1.3052,1.3057,1.2986,1.2998,1.2991,1.2993,1.2942,1.2946,1.278,1.2758,1.2912,1.2911,1.291,0,1.3227,1.319,1.318,1.316,1.3152,1.3119,1.3101,1.3117,1.3096,1.3076,1.3046,1.3012,1.2985,1.2924,1.2923,1.2891,1.2901,1.2845,1.2896,1.2891,1.2897,1.2898,1.2893,1.2834,1.2832,1.2831,1.283,0,1.3098,1.3104,1.3077,1.305,1.3027,1.3007,1.2989,1.2971,1.2986,1.296,1.2924,1.2903,1.2862,1.2826,1.2797,1.2789,1.281,1.2814,1.28,1.2793,1.2789,1.2788,1.2961,1.2817,1.2818,1.2819,1.282,1.282,1.3001,1.2969,1.2957,1.2925,1.2914,1.2897,1.2866,1.2866,1.2836,1.2804,1.2816,1.2773,1.2757,1.2721,1.2709,1.2675,1.2695,1.2676,1.2671,1.2665,1.2658,1.2797,1.267,1.267,1.267,1.2671,1.2671,0,1.2871,1.2866,1.2836,1.2811,1.2785,1.281,1.2791,1.2767,1.273,1.2714,1.2688,1.2644,1.261,1.2606,1.2573,1.2546,1.2555,1.2537,1.2538,1.2535,1.2643,1.2657,1.253,1.253,1.253,1.253,1.253,1.253,1.2801,1.2747,1.2752,1.2692,1.2687,1.2646,1.2633,1.2616,1.2603,1.2554,1.2526,1.2525,1.2513,1.2479,1.2448,1.2448,1.2433,1.2411,1.2414,1.2514,1.2528,1.2541,1.2554,1.2408,1.2408,1.2309,1.2308,1.2307]}]]